Regional Weather Roundup
Issued by NWS

Home | Current Version | Previous Version | Graphics & Text | Print | Product List | Glossary On
Versions: 1 2 3 4 5 6 7 8 9 10 11 12 13 14 15 16 17 18 19 20 21 22 23 24 25 26 27 28
000
ASUS45 KTFX 240710
RWRMT
MONTANA REGIONAL WEATHER ROUNDUP
NATIONAL WEATHER SERVICE GREAT FALLS MT
100 AM MDT WED AUG 24 2016

NOTE: "FAIR" INDICATES FEW OR NO CLOUDS BELOW 12000 FEET WITH NO
SIGNIFICANT WEATHER AND/OR OBSTRUCTIONS TO VISIBILITY.

MTZ001>007-043-240800-
WEST OF THE DIVIDE

CITY           SKY/WX    TMP DP  RH WIND       PRES   REMARKS
KALISPELL      MOCLDY    61  43  51 N17       30.21R
MISSOULA       CLOUDY    60  46  59 W7        30.21S
BUTTE          CLEAR     45  29  53 CALM      30.28R
MULLAN PASS    CLEAR     51  35  54 CALM      30.30S
DEER LODGE       N/A     55  37  50 N6        30.30R
EUREKA           N/A     55  43  62 CALM      30.24S
HAMILTON         N/A     48  37  66 CALM      30.21S
LIBBY            N/A     55  46  71 CALM      30.23R
PLAINS           N/A     56  51  83 CALM      30.21R
RONAN            N/A     62  46  55 NE3       30.25R
$$

MTZ008-052>055-240800-
SOUTHWEST MONTANA

CITY           SKY/WX    TMP DP  RH WIND       PRES   REMARKS
BOZEMAN        CLEAR     55  39  54 W12       30.24R
DILLON         CLEAR     50  34  54 E8        30.24R
W YELLOWSTONE  MOCLDY    36  16  44 CALM      30.29R
ENNIS          CLEAR     50  36  57 NE12      30.30R
THREE FORKS      N/A     54  19  25 CALM      30.23R
TWIN BRIDGES     N/A     56  35  45 N15       30.19R
$$

MTZ009-010-012-014-046-048-049-054-240800-
EAST SLOPES AND CENTRAL MONTANA

CITY           SKY/WX    TMP DP  RH WIND       PRES   REMARKS
CUT BANK       MOCLDY    50  44  80 W6        30.28R
GREAT FALLS    CLOUDY    52  46  80 W3        30.28R
MALMSTROM AFB  MOCLDY    56  45  66 MISG      30.27R
HELENA         PTCLDY    55  41  59 NW6       30.26R
CHOTEAU          N/A     55  45  67 N13       30.29S
CONRAD           N/A     54  48  80 W10       30.27R
$$

MTZ011-013-016-021-045-047-050-051-240800-
NORTH CENTRAL MONTANA

CITY           SKY/WX    TMP DP  RH WIND       PRES   REMARKS
HAVRE          CLOUDY    57  50  77 W16       30.17S
LEWISTOWN      CLOUDY    55  45  68 W13       30.24R
N BAR RANCH      N/A     54  45  71 NW22G31   30.21R
CHINOOK          N/A     57  52  82 W14G20    30.14S
$$

MTZ017>020-022>027-061-062-240800-
NORTHEAST MONTANA

CITY           SKY/WX    TMP DP  RH WIND       PRES   REMARKS
GLASGOW        CLEAR     57  49  74 W18G28    30.03R
JORDAN           N/A     58  48  69 NW17      30.10S
SIDNEY         CLEAR     60  48  64 W16       29.97S
WOLF POINT     CLEAR     59  49  69 W15G23    30.00S
POPLAR           N/A     57  48  72 W13       29.99S
SCOBEY           N/A     57  46  66 W14       29.94F
$$

MTZ028>42-056>058-240800-
SOUTHCENTRAL AND SOUTHEAST MONTANA

CITY           SKY/WX    TMP DP  RH WIND       PRES   REMARKS
BAKER          CLEAR     56  43  61 W14       30.08R
BILLINGS       CLEAR     57  43  59 W6        30.22R
LIVINGSTON     CLEAR     51  38  60 NW6       30.25S
MILES CITY     CLEAR     59  44  57 W9        30.11R
EKALAKA          N/A     55  42  61 W7        30.09R
FORSYTH          N/A     61  46  59 W9        30.13R
LAUREL           N/A     53  41  64 W2        30.20R
ROUNDUP          N/A     57  42  57 NW3       30.11R
$$

REGIONAL REPORTS...DAKOTAS

CITY           SKY/WX    TMP DP  RH WIND       PRES   REMARKS
WILLISTON      CLEAR     59  46  62 W14       29.93R
MINOT          CLEAR     63  48  58 SW10      29.85S
DICKINSON      CLEAR     55  44  66 W12       29.98S
CROSBY           N/A     55  48  76 W14       29.89S
BISMARCK       CLEAR     57  46  66 W6        29.93R
GRAND FORKS    CLEAR     60  56  86 S5        29.80R
FARGO          CLOUDY    70  58  65 NW8       29.82R
BUFFALO SD       N/A     52  41  66 SW8       30.02R
RAPID CITY     PTCLDY    57  34  41 NW9       30.09S
$$

REGIONAL REPORTS...WYOMING/IDAHO/WASHINGTON

CITY           SKY/WX    TMP DP  RH WIND       PRES   REMARKS
GILLETTE       PTCLDY    59  34  39 N8        30.17R
SHERIDAN       CLEAR     54  42  64 NW10      30.22S
BUFFALO WY     CLEAR     58  36  43 NW15G25   30.24S
CODY           CLEAR     55  37  50 NW12G20   30.26R
YELLOWSTONE LA   N/A     47  21  35 VRB3      30.34S
IDAHO FALLS    CLEAR     49  28  44 W3        30.15S
SALMON         CLEAR     55  30  38 SE3       30.20S
BOISE          CLEAR     65  32  29 W6        30.08S
SPOKANE        MOCLDY    67  41  38 CALM      30.17S
$$

REGIONAL REPORTS...ALBERTA

CITY           SKY/WX    TMP DP  RH WIND       PRES   REMARKS
EDMONTON       MOCLDY    52  48  87 W9        30.23S
CALGARY        PTCLDY    52  43  71 NW15      30.29R
LETHBRIDGE     CLOUDY    55  46  71 W14       30.26S
MEDICINE HAT   LGT RAIN  55  50  82 NW13G25   30.17R
WATERTON GATE    N/A     48  46  93 SW3         N/A
ONEFOUR          N/A     54  50  87 NW22G29     N/A
$$

REGIONAL REPORTS...SASKATCHEWAN

CITY           SKY/WX    TMP DP  RH WIND       PRES   REMARKS
SWIFT CURRENT  LGT RAIN  50  48  93 NW24G32   29.99  FOG
REGINA         CLOUDY    54  52  94 NW13      29.83R
SASKATOON      CLOUDY    55  55 100 N17G23    29.91R
CYPRESS HILLS    N/A     46  45  93 NW10G22     N/A
VAL MARIE        N/A     55  50  82 W16G23      N/A
ROCKGLEN         N/A     52  48  87 NW18G30     N/A
ASSINIBOIA       N/A     50  46  87 W6          N/A
$$




USA.gov is the U.S. government's official web portal to all federal, state and local government web resources and services.